Weather History for La Paz, Mexico

Change the Weather History Date:

Friday, November 9, 2012

  Actual Average Record
Temperature  
Mean Temperature 84 °F -  
Max Temperature 96 °F 81 °F 96 °F (2007)
Min Temperature 72 °F 58 °F 53 °F (2000)
Cooling Degree Days 19    
Growing Degree Days 34 (Base 50)    
Moisture  
Dew Point 60 °F    
Average Humidity 51    
Maximum Humidity 88    
Minimum Humidity 16    
Precipitation  
Precipitation 0.00 in - - ()
Sea Level Pressure  
Sea Level Pressure 29.91 in    
Wind  
Wind Speed 4 mph ()    
Max Wind Speed 9 mph    
Max Gust Speed -    
Visibility 11.7 miles    
Events      
Averages and records for this station are not official NWS values.
T = Trace of Precipitation, MM = Missing Value Source: Averaged Metar Reports

Daily Weather History Graph

Daily Weather History Graph

Search for Another Location

Airport:

Trip Planner

Search our weather history database for the weather conditions in past years. The results will help you decide how hot, cold, wet, or windy it might be!

Date:

Astronomy

Nov. 09, 2012 Rise Set
Actual Time 6:32 AM MST 5:37 PM MST
Civil Twilight 6:09 AM MST 6:01 PM MST
Nautical Twilight 5:42 AM MST 6:28 PM MST
Astronomical Twilight 5:15 AM MST 6:55 PM MST
Moon 2:04 AM MST (11/9) 2:27 PM MST (11/9)
Length of Visible Light 11h 51m
Length of Day
11h 04m
Waning Crescent, 22% of the Moon is Illuminated
Nov 9
Waning Crescent
Nov 13
New
Nov 20
First Quarter
Nov 28
Full
Dec 6
Last Quarter

Hourly Weather History & Observations

Time (MST) Temp. Heat Index Dew Point Humidity Pressure Visibility Wind Dir Wind Speed Gust Speed Precip Events Conditions
1:50 AM 75 °F - 71 °F 84% 29.91 in 2 mi South 2.2 mph - -  
4:50 AM 74 °F - 69 °F 81% 29.92 in 2 mi Calm Calm - -  
6:08 AM 66.2 °F - 62.6 °F 88% 29.91 in 10.0 mi West 6.9 mph - N/A   Clear
6:40 AM 66.2 °F - 62.6 °F 88% 29.92 in 10.0 mi South 3.5 mph - N/A   Clear
7:40 AM 78 °F - 65 °F 56% 29.96 in 16 mi Calm Calm - -  
7:41 AM 68.0 °F - 64.4 °F 88% 29.99 in 12.0 mi South 5.8 mph - N/A   Clear
8:40 AM 77.0 °F - 66.2 °F 69% 29.95 in 12.0 mi South 6.9 mph - N/A   Clear
9:42 AM 82.4 °F 82.0 °F 57.2 °F 42% 29.95 in 12.0 mi South 9.2 mph - N/A   Clear
10:46 AM 87.8 °F - 48.2 °F 25% 29.99 in 12.0 mi SSE 8.1 mph - N/A   Clear
10:50 AM 91 °F - 57 °F 22% 29.93 in 19 mi South 2.2 mph - -  
11:41 AM 89.6 °F - 46.4 °F 22% 29.91 in 15.0 mi Calm Calm - N/A   Clear
12:42 PM 93.2 °F - 46.4 °F 20% 29.87 in 15.0 mi West 4.6 mph - N/A   Clear
1:46 PM 93.2 °F - 48.2 °F 21% 29.89 in 15.0 mi SSW 5.8 mph - N/A   Scattered Clouds
1:50 PM 96 °F - 55 °F 16% 29.85 in 19 mi WSW 4.5 mph - -   Clear
2:48 PM 93.2 °F - 51.8 °F 24% 29.82 in 15.0 mi North 9.2 mph - N/A   Scattered Clouds
3:47 PM 91.4 °F - 51.8 °F 26% 29.82 in 15.0 mi WSW 8.1 mph - N/A   Scattered Clouds
4:50 PM 91 °F - 56 °F 21% 29.84 in 19 mi NW 4.5 mph - -   Clear
4:58 PM 89.6 °F - 51.8 °F 27% 29.96 in 10.0 mi West 6.9 mph - N/A   Scattered Clouds
5:51 PM 84.2 °F 84.4 °F 60.8 °F 45% 29.85 in 10.0 mi WSW 9.2 mph - N/A   Scattered Clouds
6:55 PM 78.8 °F - 64.4 °F 61% 29.87 in 10.0 mi South 6.9 mph - N/A   Scattered Clouds
7:47 PM 77.0 °F - 64.4 °F 65% 30.01 in 10.0 mi South 9.2 mph - N/A   Partly Cloudy
7:50 PM 81 °F - 67 °F 53% 29.89 in 2 mi Calm Calm - -  
8:54 PM 75.2 °F - 66.2 °F 73% 29.91 in 10.0 mi South 9.2 mph - N/A   Clear
9:45 PM 75.2 °F - 66.2 °F 73% 29.92 in 10.0 mi South 6.9 mph - N/A   Clear
10:41 PM 73.4 °F - 68.0 °F 83% 30.03 in 10.0 mi South 5.8 mph - N/A   Clear